Weather History for Bakersfield, CA

Change the Weather History Date:

Thursday, February 27, 2014

  Actual Average Record
Temperature  
Mean Temperature 64 °F 55 °F  
Max Temperature 72 °F 66 °F 83 °F (1980)
Min Temperature 55 °F 45 °F 24 °F (1893)
Degree Days  
Heating Degree Days 1    
Month to date heating degree days 219  
Since 1 July heating degree days 1326  
Cooling Degree Days 0    
Month to date cooling degree days 0  
Year to date cooling degree days 9  
Growing Degree Days 14 (Base 50)    
Moisture  
Dew Point 39 °F    
Average Humidity 51    
Maximum Humidity 80    
Minimum Humidity 22    
Precipitation  
Precipitation 0.01 in 0.05 in 0.51 in (2010)
Month to date precipitation 0.06 1.20  
Year to date precipitation 0.18 2.36  
Since 1 July precipitation 1.25 4.44  
Snow  
Snow 0.00 in - - ()
Month to date snowfall 0.0  
Since 1 July snowfall 0.0  
Snow Depth 0.00 in    
Sea Level Pressure  
Sea Level Pressure 29.86 in    
Wind  
Wind Speed 8 mph (NNE)    
Max Wind Speed 21 mph    
Max Gust Speed 26 mph    
Visibility 10 miles    
Events Rain    
T = Trace of Precipitation, MM = Missing Value Source: NWS Daily Summary

Daily Weather History Graph

Daily Weather History Graph

Search for Another Location

Airport:

Trip Planner

Search our weather history database for the weather conditions in past years. The results will help you decide how hot, cold, wet, or windy it might be!

Date:

Astronomy

Feb. 27, 2014 Rise Set
Actual Time 6:28 AM PST 5:49 PM PST
Civil Twilight 6:02 AM PST 6:15 PM PST
Nautical Twilight 5:33 AM PST 6:45 PM PST
Astronomical Twilight 5:03 AM PST 7:14 PM PST
Moon 5:01 AM PST (2/27) 4:23 PM PST (2/27)
Length of Visible Light 12h 12m
Length of Day
11h 21m
Waning Crescent, 3% of the Moon is Illuminated
Feb 27
Waning Crescent
Mar 1
New
Mar 8
First Quarter
Mar 16
Full
Mar 23
Last Quarter

Hourly Weather History & Observations

Time (PST) Temp. Dew Point Humidity Pressure Visibility Wind Dir Wind Speed Gust Speed Precip Events Conditions
12:54 AM 63.0 °F 48.9 °F 60% 29.83 in 7.0 mi SSE 11.5 mph - 0.01 in Rain Light Rain
1:54 AM 57.0 °F 52.0 °F 83% 29.88 in 10.0 mi NNW 17.3 mph - 0.00 in Rain Light Rain
2:54 AM 57.9 °F 50.0 °F 75% 29.88 in 10.0 mi NNW 13.8 mph - 0.00 in   Overcast
3:54 AM 59.0 °F 48.9 °F 69% 29.89 in 10.0 mi NNW 13.8 mph - N/A   Overcast
4:54 AM 57.0 °F 48.9 °F 74% 29.92 in 10.0 mi NNW 11.5 mph - N/A   Scattered Clouds
5:54 AM 55.9 °F 48.0 °F 75% 29.94 in 10.0 mi NNE 8.1 mph - N/A   Clear
6:54 AM 55.9 °F 46.0 °F 69% 29.94 in 10.0 mi North 10.4 mph - N/A   Clear
7:54 AM 60.1 °F 46.9 °F 62% 29.96 in 10.0 mi NNE 6.9 mph - N/A   Clear
8:54 AM 62.1 °F 44.1 °F 52% 29.99 in 10.0 mi North 10.4 mph - N/A   Clear
9:54 AM 63.0 °F 39.9 °F 43% 29.99 in 10.0 mi Calm Calm - N/A   Clear
10:54 AM 66.0 °F 39.0 °F 37% 29.97 in 10.0 mi NE 5.8 mph - N/A   Clear
11:54 AM 68.0 °F 37.0 °F 32% 29.95 in 10.0 mi NW 6.9 mph - N/A   Clear
12:54 PM 68.0 °F 35.1 °F 30% 29.93 in 10.0 mi SSW 8.1 mph - N/A   Clear
1:54 PM 69.1 °F 34.0 °F 27% 29.90 in 10.0 mi North - - N/A   Clear
2:54 PM 70.0 °F 30.0 °F 23% 29.88 in 10.0 mi North 9.2 mph - N/A   Clear
3:54 PM 72.0 °F 30.9 °F 22% 29.84 in 10.0 mi NE 9.2 mph - N/A   Clear
4:54 PM 69.1 °F 30.9 °F 24% 29.80 in 10.0 mi NNE 9.2 mph - N/A   Clear
5:54 PM 66.9 °F 32.0 °F 27% 29.78 in 10.0 mi NNW 3.5 mph - N/A   Clear
6:54 PM 64.0 °F 33.1 °F 31% 29.77 in 10.0 mi Calm Calm - N/A   Clear
7:54 PM 62.1 °F 34.0 °F 35% 29.75 in 10.0 mi ESE 5.8 mph - N/A   Clear
8:54 PM 62.1 °F 34.0 °F 35% 29.73 in 10.0 mi East 5.8 mph - N/A   Scattered Clouds
9:54 PM 63.0 °F 30.9 °F 30% 29.71 in 10.0 mi East 3.5 mph - N/A   Mostly Cloudy
10:54 PM 63.0 °F 28.9 °F 28% 29.71 in 10.0 mi Calm Calm - N/A   Partly Cloudy
11:54 PM 66.0 °F 27.0 °F 23% 29.69 in 8.0 mi SSE 12.7 mph - N/A   Overcast